Stations météo

réclame
Mon MeteoGroup
Bujaraloz, Espagne (8165): Température de l'air & dewpoint: 14.01.2019 13:00:00 - 20.01.2019 13:00:00 (CET)Bujaraloz, Espagne (8165): Vitesse du vent & gusts: 14.01.2019 13:00:00 - 20.01.2019 13:00:00 (CET)Bujaraloz, Espagne (8165): Direction du vent: 14.01.2019 13:00:00 - 20.01.2019 13:00:00 (CET)Bujaraloz, Espagne (8165): reduced air pressure: 14.01.2019 13:00:00 - 20.01.2019 13:00:00 (CET)Bujaraloz, Espagne (8165): visibility: 14.01.2019 13:00:00 - 20.01.2019 13:00:00 (CET)Bujaraloz, Espagne (8165): Ensoleillement: 14.01.2019 13:00:00 - 20.01.2019 13:00:00 (CET)Bujaraloz, Espagne (8165): Quantités de précipitations: 14.01.2019 13:00:00 - 20.01.2019 13:00:00 (CET)
Date & Time tt [°C] td [°C] ff [km/h] ff [knt] fx [km/h] fx [knt] dd ppp [hPa] vv [km] sd [min] rr [mm]
20.01.2019 13:00:00 - - - - - - - - - - -
20.01.2019 12:00:00 6,8 4,6 21 11 35 19 NW 1011,2 20 22 0,0
20.01.2019 11:00:00 5,4 4,6 22 12 30 16 WNW 1011,0 8 2 0,0
20.01.2019 10:00:00 4,2 4,1 20 11 25 13 W 1010,4 3,0 0 0,0
20.01.2019 09:00:00 3,5 3,4 17 9 22 12 W 1010,1 1,8 0 0,2
20.01.2019 08:00:00 3,2 3,0 18 10 22 12 W 1009,5 1,5 0 0,2
20.01.2019 07:00:00 3,1 3,0 16 9 20 11 WNW 1009,0 1,0 0 -
20.01.2019 06:00:00 2,8 2,7 11 6 14 7 W 1008,6 1,7 0 0,0
20.01.2019 05:00:00 2,7 2,5 8 5 10 5 W 1008,5 0,6 0 0,0
20.01.2019 04:00:00 2,8 2,7 4 2 6 3 W 1008,9 0,4 0 0,0
20.01.2019 03:00:00 2,7 2,5 5 3 11 6 E 1009,1 2,0 0 0,2
20.01.2019 02:00:00 2,6 2,5 10 5 16 9 ENE 1009,2 1,4 0 0,4
20.01.2019 01:00:00 2,6 2,3 13 7 19 11 ENE 1009,9 1,3 0 -
20.01.2019 00:00:00 3,0 2,7 8 4 11 6 E 1010,3 1,6 0 0,0
19.01.2019 23:00:00 3,2 2,7 3 2 11 6 ESE 1010,6 3,1 0 0,0
19.01.2019 22:00:00 3,4 2,3 8 4 16 9 E 1010,8 6 0 0,0
19.01.2019 21:00:00 3,7 2,3 10 5 20 11 ENE 1011,0 6 0 0,0
19.01.2019 20:00:00 3,9 2,1 12 6 24 13 NE 1011,2 8 0 0,0
19.01.2019 19:00:00 4,0 2,3 17 9 23 13 ENE 1011,0 8 0 -
19.01.2019 18:00:00 4,3 2,3 17 9 24 13 ENE 1011,3 8 0 0,0
19.01.2019 17:00:00 5,0 2,5 18 10 23 13 ENE 1011,8 10 2 0,0
19.01.2019 16:00:00 5,8 2,7 15 8 20 11 NE 1012,5 18 13 0,0
19.01.2019 15:00:00 6,7 2,9 12 7 18 10 ENE 1013,2 15 54 0,0
19.01.2019 14:00:00 6,6 2,5 9 5 15 8 ENE 1014,2 19 60 0,0
19.01.2019 13:00:00 5,3 2,5 6 3 9 5 E 1015,3 13 60 -
19.01.2019 12:00:00 1,9 1,7 2 1 11 6 NW 1016,7 8 60 0,0
19.01.2019 11:00:00 0,0 0,0 6 3 10 5 NE 1017,1 0,9 44 0,0
19.01.2019 10:00:00 -0,3 -0,5 8 4 14 8 ENE 1016,9 0,8 0 0,0
19.01.2019 09:00:00 -1,1 -1,2 8 4 9 5 E 1016,3 0,9 0 0,0
19.01.2019 08:00:00 -0,1 -0,2 1 1 6 4 WSW - - 0 0,0
19.01.2019 07:00:00 -1,3 -1,4 4 2 8 5 NNE 1016,2 1,0 0 -
19.01.2019 06:00:00 0,3 0,2 6 4 9 5 SSW 1015,9 13 0 0,0
19.01.2019 05:00:00 -0,3 -1,0 6 3 8 5 NE 1016,1 8 0 0,0
19.01.2019 04:00:00 2,2 -0,5 6 3 9 5 W 1015,9 20 0 0,0
19.01.2019 03:00:00 2,9 -0,5 4 2 11 6 W 1016,0 20 0 0,0
19.01.2019 02:00:00 3,6 -0,3 8 4 12 7 WNW 1015,9 20 0 0,0
19.01.2019 01:00:00 3,8 -0,5 13 7 18 10 WNW 1016,4 20 0 -
19.01.2019 00:00:00 3,6 0,0 14 8 19 10 W 1016,6 20 0 0,0
18.01.2019 23:00:00 3,9 0,2 17 9 21 11 W 1016,4 20 0 0,0
18.01.2019 22:00:00 5,5 0,4 18 10 21 12 W 1015,7 20 0 0,0
18.01.2019 21:00:00 6,3 0,6 19 10 21 11 W 1015,6 20 0 0,0
18.01.2019 20:00:00 7,2 1,1 15 8 18 10 W 1015,7 20 0 0,0
18.01.2019 19:00:00 7,9 0,6 13 7 18 10 W 1015,5 20 0 -
18.01.2019 18:00:00 8,4 0,6 16 9 22 12 NW 1015,3 20 36 0,0
18.01.2019 17:00:00 9,5 0,4 18 10 29 16 WNW 1015,4 20 10 0,0
18.01.2019 16:00:00 9,3 0,6 18 10 28 15 NW 1015,9 20 0 0,0
18.01.2019 15:00:00 9,6 1,1 18 10 27 15 W 1016,2 20 49 0,0
18.01.2019 14:00:00 8,7 1,3 10 6 19 10 WNW 1017,1 20 52 0,0
18.01.2019 13:00:00 6,2 3,0 2 1 6 3 ENE 1018,5 19 60 -
18.01.2019 12:00:00 4,5 2,3 1 1 4 2 NW 1019,4 20 20 0,0
18.01.2019 11:00:00 2,7 0,6 2 1 10 5 NE 1019,6 20 32 0,0
18.01.2019 10:00:00 0,7 -1,4 5 3 10 5 WNW 1019,6 3,9 57 0,0
18.01.2019 09:00:00 2,2 -0,5 10 5 12 6 W 1019,0 20 2 0,0
18.01.2019 08:00:00 2,6 -0,3 8 4 16 8 W 1019,0 20 0 0,0
18.01.2019 07:00:00 0,5 -0,7 12 6 18 10 W 1018,9 20 0 -
18.01.2019 06:00:00 2,1 -0,5 12 7 20 11 WSW 1018,5 20 0 0,0
18.01.2019 05:00:00 3,2 0,2 10 5 17 9 SW 1018,7 20 0 0,0
18.01.2019 04:00:00 2,3 0,2 14 8 21 11 SW 1019,0 20 0 0,0
18.01.2019 03:00:00 2,6 0,6 11 6 21 11 WSW 1019,2 20 0 0,0
18.01.2019 02:00:00 3,1 1,1 7 4 13 7 W 1019,1 20 0 0,0
18.01.2019 01:00:00 3,8 1,3 8 4 12 6 W 1019,5 20 0 -
18.01.2019 00:00:00 3,6 2,1 4 2 9 5 W 1019,7 19 0 0,0
17.01.2019 23:00:00 3,1 2,1 5 3 9 5 N 1019,3 8 0 0,0
17.01.2019 22:00:00 4,5 3,4 4 2 12 7 NNE 1018,6 5 0 0,0
17.01.2019 21:00:00 5,0 3,4 8 5 11 6 NNE 1017,8 6 0 0,0
17.01.2019 20:00:00 6,0 3,6 5 3 9 5 ENE 1017,3 8 0 0,0
17.01.2019 19:00:00 6,1 3,6 7 4 9 5 E 1017,0 10 0 -
17.01.2019 18:00:00 6,6 3,8 5 3 9 5 NNE 1016,7 11 0 0,0
17.01.2019 17:00:00 7,1 3,8 3 2 12 6 NW 1016,7 13 12 0,0
17.01.2019 16:00:00 7,0 3,6 11 6 17 9 WNW 1016,6 13 0 0,0
17.01.2019 15:00:00 6,8 3,4 13 7 18 10 W 1016,7 14 0 0,0
17.01.2019 14:00:00 6,1 3,0 8 5 12 7 W 1017,3 14 0 0,0
17.01.2019 13:00:00 4,9 3,0 6 3 9 5 SSW 1018,0 7 0 -
17.01.2019 12:00:00 3,6 2,7 6 4 11 6 SSW 1018,7 4,6 0 0,0
17.01.2019 11:00:00 2,6 2,5 5 3 11 6 WSW 1019,1 1,9 0 0,0
17.01.2019 10:00:00 2,3 2,1 7 4 13 7 WSW 1018,5 1,5 0 0,0
17.01.2019 09:00:00 2,4 2,3 4 2 12 6 W 1017,8 0,3 0 0,0
17.01.2019 08:00:00 2,7 2,5 5 3 15 8 WSW 1017,4 2,0 0 0,0
17.01.2019 07:00:00 3,0 2,5 8 4 12 7 W 1017,3 2,6 0 -
17.01.2019 06:00:00 3,4 2,7 6 4 16 9 W 1017,0 3,9 0 0,0
17.01.2019 05:00:00 3,7 2,7 11 6 16 9 WSW 1017,2 4,7 0 0,0
17.01.2019 04:00:00 4,0 2,9 10 6 14 8 W 1017,4 6 0 0,0
17.01.2019 03:00:00 4,5 3,6 9 5 19 10 WNW 1017,5 4,6 0 0,0
17.01.2019 02:00:00 4,3 3,6 9 5 15 8 SW 1017,7 4,3 0 0,0
17.01.2019 01:00:00 4,2 3,2 6 4 22 12 WNW 1018,3 4,3 0 -
17.01.2019 00:00:00 4,2 3,9 17 9 32 17 WNW 1018,4 2,0 0 0,0
16.01.2019 23:00:00 5,0 4,8 19 11 25 14 WNW 1018,0 1,2 0 0,0
16.01.2019 22:00:00 5,3 5,1 15 8 18 10 WNW 1017,4 2,2 0 0,0
16.01.2019 21:00:00 5,2 5,1 13 7 16 9 W 1016,9 0,6 0 0,0
16.01.2019 20:00:00 5,3 5,2 14 8 18 10 W - - 0 0,0
16.01.2019 19:00:00 5,7 5,6 9 5 11 6 WNW 1016,1 2,4 0 -
16.01.2019 18:00:00 5,9 5,6 3 1 6 3 NNW 1016,0 2,5 0 0,0
16.01.2019 17:00:00 5,8 5,5 2 1 10 5 ESE 1015,9 3,4 0 0,0
16.01.2019 16:00:00 5,4 4,6 4 2 11 6 E 1016,2 6 0 0,0
16.01.2019 15:00:00 5,2 4,3 8 4 13 7 NE 1016,4 7 0 0,0
16.01.2019 14:00:00 4,5 4,3 8 5 14 7 ENE 1017,2 4,9 0 0,0
16.01.2019 13:00:00 4,0 3,8 4 2 10 5 ESE 1018,0 3,2 0 -
16.01.2019 12:00:00 3,6 3,4 5 3 10 5 ENE 1019,0 0,6 0 0,0
16.01.2019 11:00:00 3,1 3,0 5 3 9 5 S 1019,3 0,2 0 0,0
16.01.2019 10:00:00 2,6 2,5 6 4 10 5 S 1019,2 0,1 0 0,0
16.01.2019 09:00:00 3,5 3,4 5 3 8 4 SSE 1018,5 0,1 0 0,0
16.01.2019 08:00:00 3,6 3,4 3 1 8 5 SSE 1018,5 0,1 0 0,0
16.01.2019 07:00:00 3,7 3,6 5 3 6 4 SSE 1018,4 0,1 0 -
16.01.2019 06:00:00 3,7 3,6 3 2 5 3 ESE 1018,4 0,2 0 0,0
16.01.2019 05:00:00 4,1 3,9 4 2 6 4 E 1018,9 1,4 0 0,0
16.01.2019 04:00:00 4,4 4,3 2 1 8 4 ESE - - 0 0,0
16.01.2019 03:00:00 4,4 3,8 3 2 6 3 SSE 1019,5 3,6 0 0,0
16.01.2019 02:00:00 4,8 3,9 1 1 5 3 SE 1019,7 5 0 0,0
16.01.2019 01:00:00 3,9 3,6 4 2 7 4 WNW 1020,0 2,1 0 -
16.01.2019 00:00:00 4,6 3,9 7 4 13 7 ENE 1020,1 6 0 0,0
15.01.2019 23:00:00 4,7 3,9 11 6 16 9 E 1020,1 7 0 0,0
15.01.2019 22:00:00 5,6 4,3 14 8 18 10 E 1019,9 9 0 0,0
15.01.2019 21:00:00 7,1 4,8 13 7 17 9 E 1019,7 13 0 0,0
15.01.2019 20:00:00 7,7 5,1 11 6 17 9 NE 1019,5 17 0 0,0
15.01.2019 19:00:00 9,4 5,6 13 7 16 9 E 1019,2 20 0 -
15.01.2019 18:00:00 10,5 5,0 9 5 13 7 NE 1019,0 20 54 0,0
15.01.2019 17:00:00 11,5 5,0 8 5 13 7 ENE 1018,9 20 60 0,0
15.01.2019 16:00:00 12,1 4,8 6 3 9 5 ENE 1018,8 20 60 0,0
15.01.2019 15:00:00 13,2 5,1 7 4 15 8 SSW 1019,1 20 60 0,0
15.01.2019 14:00:00 11,8 4,8 5 3 14 8 N 1020,2 20 60 0,0
15.01.2019 13:00:00 10,3 4,3 9 5 16 9 NW 1021,2 20 60 -
15.01.2019 12:00:00 9,0 3,9 5 3 10 5 WNW 1022,4 20 60 0,0
15.01.2019 11:00:00 6,2 3,0 5 3 7 4 ENE 1022,8 20 60 0,0
15.01.2019 10:00:00 5,2 2,7 4 2 8 4 NNW 1022,3 20 57 0,0
15.01.2019 09:00:00 5,4 2,7 8 4 16 8 W 1021,9 20 6 0,0
15.01.2019 08:00:00 5,8 2,9 11 6 19 10 WSW 1021,6 20 0 0,0
15.01.2019 07:00:00 6,0 2,9 18 10 22 12 WSW 1021,3 20 0 -
15.01.2019 06:00:00 6,8 3,2 20 11 26 14 WSW 1020,8 20 0 0,0
15.01.2019 05:00:00 7,2 3,6 22 12 27 15 WSW 1020,9 20 0 0,0
15.01.2019 04:00:00 7,4 3,6 24 13 28 15 WSW 1021,2 20 0 0,0
15.01.2019 03:00:00 7,9 3,9 22 12 30 16 WSW 1020,9 20 0 0,0
15.01.2019 02:00:00 8,0 3,9 21 11 29 16 WSW 1021,0 20 0 0,0
15.01.2019 01:00:00 8,4 3,9 23 12 31 17 WSW 1021,1 20 0 -
15.01.2019 00:00:00 9,1 4,3 26 14 41 22 WSW 1021,2 20 0 0,0
14.01.2019 23:00:00 9,7 4,6 29 15 42 23 W 1020,8 20 0 0,0
14.01.2019 22:00:00 9,8 4,8 28 15 37 20 WSW 1020,8 20 0 0,0
14.01.2019 21:00:00 9,8 4,8 28 15 42 23 W 1020,2 20 0 0,0
14.01.2019 20:00:00 10,4 4,8 34 18 48 26 W 1019,6 20 0 0,0
14.01.2019 19:00:00 11,7 4,8 37 20 51 27 W 1019,1 20 0 -
14.01.2019 18:00:00 12,4 5,1 34 19 50 27 W 1018,6 20 53 0,0
14.01.2019 17:00:00 13,9 5,0 38 21 61 33 WNW 1018,6 20 60 0,0
14.01.2019 16:00:00 14,5 5,0 44 24 63 34 WNW 1018,4 20 60 0,0
14.01.2019 15:00:00 14,4 4,6 43 23 61 33 WNW 1018,7 20 60 0,0
14.01.2019 14:00:00 13,7 4,5 42 23 63 34 WNW 1019,5 20 60 0,0
14.01.2019 13:00:00 - - - - - - - - - - -

tt = Température de l'air
td = dewpoint
ff = Vitesse du vent
fx = gusts
dd = Direction du vent
ppp = reduced air pressure
vv = visibility
sd = Ensoleillement
rr = Quantités de précipitations

stations d'obs. à proximité